Location: Goudex
(43.3760°N, 0.9543°E)
Time: 06:13:44
(UTC+00:00)

Cosmos 972 Rocket - Pass Details

Date: 20 November 2019
Orbit: 713 x 1151 km, 75.8° (Epoch: 14 December)

Event Time Altitude Azimuth Distance (km) Brightness Sun altitude
Rises 06:03:23 0° 210° (SSW) 3,149 7.1 -9.6°
Reaches altitude 10° 06:05:41 10° 215° (SW) 2,264 6.3 -9.2°
Maximum altitude 06:10:40 54° 292° (WNW) 963 4.2 -8.3°
Drops below altitude 10° 06:16:12 10° 10° (N) 2,507 6.6 -7.4°
Sets 06:18:51 0° 15° (NNE) 3,520 7.4 -6.9°
